Wind_Speed
18 17 16 16 17 17 15 10 9 11 13 15 18 19 20 19 18 17 14 10 7 3 2 4 7 9 10 11 12 12 13 14 15 16 17 18 18 18 19 19 19 21 22 24 25 24 22 21 20 20 19 17 14 12 11 10 9 11 14 16 17 18 19 20 22 23 24 25 26 25 25 25 25 26 26 27 29 32 34 36 37 38 39 39 38
20 19 18 18 18 17 16 12 11 11 10 12 12 14 15 15 15 15 13 9 6 2 3 6 8 10 11 11 12 13 13 14 15 16 17 18 19 20 21 22 23 25 26 26 25 23 21 21 21 20 18 15 13 12 11 10 11 14 15 16 17 18 19 21 23 24 25 25 25 25 25 25 26 26 27 28 31 33 35 37 37 37 39 40 39
21 20 19 19 18 18 16 14 13 14 13 13 14 16 16 15 15 16 15 12 8 5 5 7 9 12 13 13 13 14 14 15 16 18 18 19 20 22 23 25 26 27 27 26 24 22 22 21 20 18 16 14 13 12 11 11 13 15 16 16 17 18 20 22 24 25 26 26 25 25 25 25 26 27 28 29 32 34 35 37 37 36 38 39 39
23 21 20 20 20 19 18 17 16 16 15 14 16 21 22 21 20 18 17 16 13 10 7 8 11 13 15 15 15 15 15 16 18 20 20 20 21 23 25 26 27 28 26 24 23 22 21 20 18 17 15 14 13 11 11 12 14 15 16 16 17 18 20 22 23 25 26 26 26 26 26 26 26 27 28 30 32 34 35 37 37 35 36 38 39
24 23 23 22 22 21 20 20 19 18 17 18 19 23 24 25 26 23 21 20 18 15 11 10 12 14 16 17 17 17 17 17 19 21 21 22 22 24 26 27 27 26 24 23 22 21 20 18 17 16 15 13 12 12 12 13 15 15 15 16 17 18 20 21 23 24 25 26 27 27 28 28 28 28 28 29 31 33 35 36 37 35 34 36 37
24 25 24 24 24 24 23 22 22 21 20 22 23 26 27 26 29 27 24 24 22 20 17 13 13 14 16 18 19 19 18 19 20 21 22 23 24 25 26 27 26 24 22 22 21 19 18 17 16 15 14 13 12 13 13 14 15 15 14 15 16 17 19 21 22 23 24 25 27 28 29 30 30 31 30 30 30 33 34 35 36 36 34 34 35
25 25 25 26 26 26 26 25 25 25 25 26 26 30 31 29 30 31 29 28 27 26 23 19 16 15 17 18 19 20 19 20 21 21 22 23 24 25 26 25 24 22 21 20 18 17 16 16 15 14 13 13 13 13 13 14 14 14 14 15 16 17 19 20 21 22 22 24 26 27 29 30 32 33 33 31 30 31 33 34 36 36 35 35 35
25 25 25 26 26 27 28 27 27 26 27 29 30 34 36 34 34 35 34 33 32 31 28 25 21 18 18 19 20 21 21 20 21 22 22 23 23 23 23 23 22 20 19 18 16 16 16 15 15 14 14 14 13 13 13 14 14 13 14 14 15 17 19 20 21 22 22 23 24 26 28 30 32 34 35 34 31 30 31 33 34 36 36 36 37
24 25 25 26 27 27 28 29 29 28 28 29 31 35 37 37 37 38 38 39 38 36 34 31 27 23 21 20 20 21 22 22 22 22 22 22 22 20 20 20 19 18 17 16 15 15 15 14 14 14 14 13 12 12 13 13 13 13 13 13 15 17 19 20 21 23 24 24 23 24 27 29 31 32 34 36 34 32 30 30 32 34 36 37 38
23 24 24 25 27 28 29 30 30 30 29 30 31 34 36 37 39 40 42 43 43 41 39 35 32 29 26 23 22 22 22 23 23 23 21 20 20 20 19 18 17 16 15 14 14 14 14 14 15 14 14 12 12 13 13 13 12 12 12 13 15 17 19 20 21 22 24 25 25 25 25 27 29 31 33 34 36 35 31 28 29 32 35 36 37
23 23 24 25 26 27 29 30 31 31 31 30 31 32 34 36 38 40 43 45 45 45 43 40 36 33 31 28 25 24 23 23 24 23 20 19 19 19 17 16 16 15 15 14 14 14 14 15 15 14 13 12 13 13 13 12 11 11 12 13 15 17 18 19 19 20 22 24 25 25 25 26 27 29 31 32 34 35 34 30 27 29 32 35 36
22 23 23 24 26 27 28 29 30 32 32 32 31 31 32 33 35 38 41 44 45 46 46 44 40 36 34 31 29 28 26 26 25 23 21 19 18 18 16 15 15 15 15 15 14 15 16 16 15 13 13 13 14 13 11 11 11 12 13 14 16 17 18 18 18 19 20 21 23 25 25 26 27 28 29 30 32 33 35 34 28 26 28 32 34
20 22 23 23 25 26 27 28 29 31 32 33 32 32 31 31 32 34 37 40 42 44 45 45 43 40 37 35 33 31 29 28 27 25 23 20 19 19 18 17 17 17 17 17 17 17 16 15 14 14 14 14 13 12 10 10 11 13 14 16 17 18 18 18 19 19 20 20 22 23 24 25 28 29 29 28 30 32 33 35 32 26 24 28 32
19 20 21 22 23 25 26 27 29 30 31 33 33 33 32 31 31 31 32 34 37 40 42 43 42 42 40 38 36 34 31 29 27 26 24 21 20 21 20 19 20 20 20 19 18 17 15 15 15 15 14 13 12 11 10 11 12 14 15 16 17 18 19 19 20 20 20 21 21 22 23 24 27 29 29 27 28 30 31 33 34 29 24 25 28
18 19 20 21 22 23 24 26 27 29 30 32 33 33 33 33 32 31 31 31 33 35 37 38 38 39 39 39 37 36 34 32 29 26 24 24 23 23 23 23 23 22 21 20 18 17 16 16 15 14 13 12 11 10 11 12 14 15 16 17 18 19 19 20 21 21 22 22 21 20 21 23 25 27 28 27 26 28 29 31 34 33 26 24 25
16 18 19 20 21 22 23 24 25 27 29 30 32 32 33 33 33 33 32 32 31 31 32 33 34 34 35 35 35 35 34 32 32 30 27 27 27 26 25 24 24 22 21 20 18 17 16 15 14 13 13 12 12 12 12 13 14 15 16 17 18 19 19 20 21 22 23 22 21 20 20 22 24 26 27 26 26 27 28 29 32 34 30 25 24
15 16 18 19 20 21 21 22 24 25 27 28 29 31 32 32 33 33 33 32 32 32 31 30 30 30 30 31 31 32 31 30 31 30 28 27 27 27 26 25 23 22 20 18 17 15 14 14 13 13 13 12 12 13 13 14 14 15 16 17 17 18 19 20 21 22 22 22 22 21 20 21 22 24 25 26 26 27 28 28 30 33 32 27 24
13 15 17 18 19 20 21 21 22 23 24 26 27 28 29 30 31 32 32 31 31 31 31 30 30 29 29 28 27 28 28 27 27 27 26 25 24 24 24 23 21 20 18 17 16 15 14 14 13 13 13 13 13 13 13 14 15 15 16 16 16 17 19 20 21 22 22 22 22 22 22 22 22 22 23 25 26 27 28 28 29 32 33 30 26
12 14 16 17 18 19 20 20 20 21 22 23 25 25 26 27 28 29 29 29 29 29 29 29 29 29 29 28 27 26 26 26 25 25 24 23 22 21 21 21 20 19 18 17 16 15 14 14 13 13 13 13 12 13 13 14 15 15 15 15 16 17 19 20 20 21 21 22 23 23 23 23 22 21 22 24 25 26 28 28 29 30 32 33 29
11 13 15 16 17 18 19 19 20 20 21 21 22 23 23 24 25 25 26 27 27 27 26 26 27 27 27 27 27 26 25 25 24 23 23 22 21 21 21 21 21 20 19 17 16 15 15 14 14 13 13 12 12 13 13 14 15 15 15 16 17 19 20 20 20 21 22 23 25 25 24 23 23 22 22 23 24 24 26 28 28 29 31 33 32
10 12 14 16 16 17 18 19 19 19 20 20 21 21 21 22 23 23 23 24 24 24 23 23 23 23 24 24 24 24 23 23 23 22 21 21 20 20 19 20 20 19 18 18 16 15 14 14 13 13 12 12 12 13 14 14 15 15 16 17 19 20 20 21 21 22 23 24 25 26 25 24 23 23 22 23 23 23 25 26 27 28 30 31 32
10 11 13 14 16 17 17 18 19 19 19 19 19 19 20 20 21 21 21 21 21 21 20 20 20 19 20 21 21 20 20 20 20 20 19 19 18 18 17 17 17 17 17 16 15 14 13 13 12 12 11 11 12 13 14 15 16 17 18 20 21 21 22 22 23 23 23 24 25 26 26 25 24 24 23 23 22 22 23 24 26 27 28 30 31
9 10 11 13 14 15 16 17 18 17 18 18 18 19 19 19 19 20 20 20 19 19 18 18 18 17 17 17 17 17 17 17 17 16 16 16 15 15 15 14 14 15 15 14 13 13 12 11 11 11 11 12 13 14 15 16 17 19 20 21 21 22 22 23 23 24 24 24 24 25 25 25 24 23 23 22 22 22 22 24 25 25 27 28 29
7 9 10 11 12 13 14 15 16 16 16 17 17 18 18 18 18 18 18 18 18 17 17 16 16 16 15 15 15 15 14 14 14 14 13 13 13 13 13 13 13 13 13 12 12 11 11 11 11 11 12 13 14 15 15 17 18 20 20 21 21 21 22 23 23 24 24 24 24 25 25 25 24 23 22 22 22 22 22 23 24 24 25 26 28
7 8 9 10 11 11 12 13 14 14 14 15 15 16 16 16 16 17 16 16 16 16 16 15 15 15 15 14 14 14 13 13 12 12 12 11 11 11 11 11 11 11 12 11 11 11 10 11 11 11 12 14 15 16 16 17 19 20 20 20 20 20 21 22 23 23 23 23 24 24 24 24 24 22 21 21 22 22 23 24 24 24 25 26 27
7 7 8 9 9 10 10 10 11 12 13 13 13 14 15 14 14 15 14 14 14 14 14 14 14 14 13 13 13 13 13 12 12 11 11 11 10 10 10 10 11 11 11 11 10 10 10 11 11 12 13 14 15 16 17 18 18 19 19 19 19 20 20 21 22 22 22 23 23 23 24 24 23 23 21 21 21 22 23 23 24 24 25 26 27
7 7 7 8 9 9 9 9 9 10 11 12 12 12 13 13 12 13 12 12 12 12 12 12 12 12 12 12 12 12 12 12 11 11 11 10 10 10 10 10 10 10 10 10 10 10 11 11 11 13 13 14 15 16 16 17 17 18 18 18 19 20 20 20 21 21 21 22 22 22 23 23 23 23 21 20 21 21 23 23 23 24 26 27 27
7 8 8 8 8 8 8 7 7 7 8 9 10 10 10 10 10 10 10 10 10 10 10 10 10 10 10 11 11 11 11 10 10 10 10 10 10 10 10 10 10 10 10 10 10 10 11 11 12 13 13 14 14 15 15 16 17 17 17 18 20 20 19 19 20 20 21 21 21 21 22 23 23 23 22 21 20 21 22 22 23 25 26 27 27
9 9 9 8 8 8 7 7 6 5 6 6 7 9 9 9 9 8 8 8 8 8 8 8 8 9 9 9 9 9 9 8 8 8 8 8 8 9 9 9 10 10 10 10 10 10 11 11 12 13 13 13 14 15 16 17 17 16 16 18 19 20 19 19 20 20 20 21 20 20 21 22 23 23 23 22 20 20 21 21 22 24 25 26 27
10 10 10 9 8 8 7 6 5 4 3 4 5 7 8 9 8 8 7 7 7 8 7 6 7 7 7 7 7 7 7 7 6 6 7 7 7 8 8 9 9 9 10 10 10 11 11 11 12 13 13 14 15 15 17 18 17 17 17 17 18 19 19 19 19 19 20 20 20 19 20 21 22 23 23 22 21 20 20 20 21 23 24 24 25
11 11 11 10 9 8 7 6 4 3 2 2 4 6 8 9 9 8 8 7 7 7 6 5 6 6 5 6 6 5 5 5 5 5 5 6 6 7 7 8 9 10 10 11 11 11 12 12 12 13 14 15 16 16 17 18 18 17 16 16 16 16 16 16 16 16 18 20 19 18 18 19 21 22 22 22 22 21 21 21 22 22 23 22 22
12 12 12 11 10 9 8 6 5 3 2 1 3 6 7 8 9 9 8 8 7 7 6 6 6 5 5 5 5 5 5 5 4 4 4 5 5 6 7 8 9 9 11 12 12 13 13 13 13 14 14 15 16 16 16 17 17 16 15 15 14 13 13 13 14 15 18 20 20 18 18 19 19 21 22 22 22 22 22 23 23 23 23 22 20
14 13 13 12 12 11 10 8 6 5 3 0 3 5 6 7 8 8 8 8 7 7 7 6 6 6 6 5 5 5 5 4 4 4 4 4 5 6 6 8 9 9 10 11 12 13 14 14 15 15 14 14 15 15 14 14 15 15 15 15 16 15 14 14 14 16 19 21 20 19 18 18 19 20 22 23 23 23 23 24 24 25 24 23 20
15 14 14 13 13 12 11 9 8 7 5 2 1 4 5 6 7 7 7 7 7 7 6 6 6 6 6 6 6 6 5 5 5 5 5 5 5 6 7 8 9 9 9 10 11 12 13 14 15 15 15 16 16 16 15 15 15 15 15 16 17 17 16 15 16 18 21 22 22 20 19 19 19 21 22 24 24 24 24 24 25 25 24 24 22
16 15 15 14 14 13 12 10 9 8 6 4 1 2 4 5 6 6 6 7 6 7 6 6 6 6 7 6 7 7 7 7 7 7 7 7 7 8 8 8 9 9 9 10 10 11 11 12 13 13 14 15 14 15 16 18 18 17 17 18 18 18 17 17 18 20 21 23 23 21 20 20 20 21 23 24 25 25 25 25 25 25 23 23 22
17 16 16 15 14 13 12 11 11 10 8 6 3 2 3 5 6 6 6 6 6 6 6 6 6 6 7 7 7 8 8 8 8 8 8 9 9 9 9 9 9 10 10 10 11 11 11 11 11 12 12 13 13 13 14 16 18 18 18 19 19 19 19 19 19 20 21 22 23 22 21 21 20 21 22 23 24 24 25 25 25 25 23 21 21
19 18 17 16 15 14 13 13 13 12 10 7 5 4 3 4 5 6 6 6 6 6 6 6 6 6 7 7 8 8 9 9 9 9 10 10 10 10 10 10 10 10 10 10 10 10 10 10 10 10 11 11 12 13 14 15 16 17 18 18 19 20 21 21 21 22 21 21 22 21 21 20 20 20 21 22 23 23 24 25 25 24 23 21 21
21 20 19 18 17 16 15 14 14 13 11 9 7 6 5 5 5 5 6 6 6 5 5 6 6 6 7 7 8 8 9 9 9 10 10 10 11 11 11 11 10 10 10 10 10 10 9 9 9 10 10 11 12 13 14 15 16 18 18 18 19 21 22 23 23 23 22 21 21 21 21 20 19 19 19 20 21 22 23 23 23 23 23 22 21
23 22 21 20 19 18 17 16 15 15 13 11 9 7 7 7 7 7 6 6 6 6 6 6 6 6 7 7 8 8 9 9 9 10 10 10 11 11 11 11 11 10 10 9 9 9 9 9 9 10 10 11 12 13 14 15 16 17 19 20 21 22 23 24 24 24 23 22 21 21 21 20 20 19 18 19 19 20 21 22 22 23 23 23 22
25 24 23 22 21 20 19 18 17 16 15 13 11 9 9 8 8 8 8 7 7 7 6 6 6 6 6 7 7 8 8 8 8 9 10 10 10 11 11 12 11 10 10 9 9 9 9 9 9 9 10 10 12 14 15 15 16 17 18 20 22 23 24 25 24 23 22 21 21 21 21 21 21 19 18 18 17 18 20 22 22 23 23 22 22
25 25 25 24 23 22 22 20 19 18 16 14 12 11 10 10 10 10 10 9 9 8 7 7 7 7 7 6 6 7 7 7 8 8 9 10 10 11 11 12 12 11 10 9 8 8 8 8 8 8 9 10 11 13 15 17 18 20 20 21 22 24 25 25 24 23 21 20 19 20 21 23 22 20 18 16 15 18 21 22 22 22 23 22 21
26 25 25 25 24 24 23 22 21 19 18 16 14 13 12 12 12 12 12 11 11 10 9 8 8 7 7 7 6 6 6 6 7 8 9 9 9 10 11 12 13 12 10 9 8 7 7 7 8 8 8 10 11 13 15 17 19 21 22 22 23 24 25 26 26 24 23 22 21 21 22 24 24 21 18 15 15 19 22 22 21 20 21 20 19
28 27 27 26 26 25 25 24 23 22 20 19 17 15 15 14 14 14 14 14 13 12 11 10 9 8 7 7 6 6 6 6 6 7 8 8 9 9 10 12 13 12 11 10 8 7 7 7 7 7 8 9 10 12 14 16 18 20 21 22 23 23 24 25 26 26 25 25 24 23 23 23 23 21 19 17 17 20 21 20 19 18 18 19 19
31 30 29 29 28 27 27 26 26 25 23 22 20 18 17 17 16 16 16 16 15 14 13 11 10 9 8 8 7 6 6 6 6 7 7 7 7 8 9 10 11 12 12 11 9 8 7 6 7 7 7 7 8 10 11 14 16 18 19 20 21 21 21 22 23 23 24 24 24 23 23 22 21 21 19 19 19 19 19 18 17 17 18 18 19
34 33 33 32 31 30 29 29 29 27 26 25 23 21 20 19 19 18 18 18 18 17 15 13 12 11 10 9 7 6 7 6 6 7 7 6 6 7 8 8 10 11 12 12 11 9 7 6 6 6 7 7 7 8 9 10 13 15 16 18 18 19 18 18 19 19 20 21 21 22 22 22 22 21 21 20 19 18 18 18 18 18 19 19 20
36 37 36 35 34 33 32 32 32 30 29 28 26 24 22 22 21 21 21 21 20 19 17 15 13 12 11 10 8 7 7 7 7 8 7 6 6 6 7 7 8 9 10 11 11 10 8 7 6 6 6 7 6 6 6 7 9 11 13 15 16 16 16 16 15 15 15 16 17 17 18 19 20 21 21 22 22 21 20 20 20 20 21 22 22
38 38 38 37 36 36 35 34 34 32 31 30 29 26 25 24 24 23 23 23 22 21 18 16 14 13 12 11 9 8 8 7 8 9 8 7 6 6 6 6 7 8 8 9 10 9 8 7 5 5 5 6 6 5 5 4 5 7 9 11 12 13 13 13 13 12 12 12 12 13 14 14 16 17 18 20 21 22 22 22 22 23 23 24 24
41 41 40 39 38 37 37 36 35 34 33 32 30 28 26 26 25 25 25 24 22 21 18 16 15 14 13 12 10 10 9 8 9 10 9 8 7 6 6 6 5 6 7 7 7 8 7 6 5 5 5 5 6 6 6 5 5 5 5 7 9 11 11 10 10 9 9 9 9 9 10 10 11 12 13 15 17 18 19 20 20 22 23 24 24
42 44 44 43 41 40 39 38 37 36 34 33 32 30 28 27 27 27 26 24 21 19 18 16 15 14 13 12 12 11 10 9 10 11 11 9 7 6 5 5 4 5 7 7 6 6 5 5 5 5 5 6 7 8 8 7 7 7 7 7 8 9 9 9 8 7 7 7 6 6 5 6 6 7 8 10 11 13 14 15 16 17 18 20 21
42 45 46 46 45 43 42 41 40 38 36 35 34 32 30 29 29 29 27 24 21 19 18 16 15 14 14 13 13 12 11 10 11 13 12 10 8 6 5 3 2 4 7 7 7 6 5 4 5 5 5 6 8 10 11 10 9 8 8 9 10 11 10 10 8 6 5 5 5 4 3 2 2 2 2 4 5 7 9 10 11 12 13 14 16
41 43 46 47 46 45 44 43 41 40 39 37 35 34 32 31 31 30 29 26 23 20 18 16 15 15 14 14 14 13 12 12 14 15 14 11 9 7 4 1 1 3 6 7 7 6 6 5 5 6 6 7 9 11 13 14 14 11 9 9 11 12 12 12 11 8 6 5 5 5 5 4 4 3 3 2 1 1 3 4 5 7 8 10 11
Wind_Direction
105 108 109 105 98 97 97 88 63 46 29 23 14 1 359 355 350 355 359 348 339 358 71 96 100 103 113 124 127 124 123 126 128 131 133 137 142 144 145 144 142 140 137 135 134 133 127 119 112 105 101 101 101 101 99 95 83 71 70 73 71 65 60 58 56 53 50 47 45 43 42 42 42 42 42 42 40 37 35 33 31 31 32 33 34
92 95 99 101 102 102 103 100 91 82 69 57 39 15 10 5 2 11 16 9 6 33 102 109 109 106 111 120 127 128 123 120 120 121 124 129 133 135 136 136 136 135 134 134 132 128 120 113 108 106 105 105 106 105 100 92 78 74 77 78 72 66 63 61 58 55 52 49 47 45 44 43 43 42 41 41 39 37 35 33 32 34 36 37 38
84 87 92 95 98 98 96 95 92 89 75 64 51 40 40 34 28 33 35 35 40 69 118 124 122 117 118 124 130 133 129 120 113 112 117 123 127 130 131 132 132 133 132 131 128 120 114 110 109 109 110 110 108 105 98 86 78 82 84 79 71 67 66 63 60 57 53 51 49 46 44 42 42 41 40 40 39 37 35 33 33 35 38 40 40
80 82 86 88 90 89 89 91 93 91 77 66 52 42 46 46 44 48 47 49 53 66 102 127 131 129 126 127 130 134 134 123 110 107 111 117 123 126 128 129 130 131 130 127 121 115 112 112 113 113 113 111 108 103 93 84 86 90 86 78 72 69 67 63 61 58 54 52 50 47 44 42 40 39 38 39 39 38 36 34 33 34 37 39 39
79 79 80 81 82 81 82 85 89 89 76 69 60 50 52 49 47 52 52 55 59 64 82 110 128 133 131 130 130 131 132 125 111 106 109 114 119 123 126 127 128 129 128 123 117 115 116 117 117 115 113 110 107 100 91 90 94 93 85 77 73 69 66 64 61 58 55 52 50 47 45 42 40 38 38 37 39 38 37 35 33 33 35 36 37
76 76 76 76 76 76 77 79 82 84 75 70 64 56 60 55 48 53 56 58 62 65 73 89 112 127 129 129 129 128 128 125 116 109 111 116 120 123 126 127 129 128 124 120 118 119 120 118 115 114 112 110 104 96 94 98 99 92 83 77 72 68 65 62 60 57 54 52 50 47 45 43 41 39 38 38 38 38 38 36 33 33 33 33 33
75 74 74 73 74 73 74 76 78 79 74 72 69 61 64 62 54 56 58 61 64 66 71 79 95 114 123 125 126 126 125 125 122 116 113 117 120 124 126 128 128 125 121 118 119 119 116 115 114 114 111 106 101 98 100 102 98 89 81 75 71 68 64 62 59 54 51 50 48 46 45 43 42 40 39 39 39 39 38 36 34 34 34 33 32
75 74 73 72 72 72 72 73 75 75 71 70 71 66 65 64 61 60 60 62 65 66 70 75 84 99 113 120 122 123 122 123 125 122 118 117 119 123 125 126 124 122 119 118 117 117 115 115 115 113 108 104 102 102 104 102 95 85 78 73 70 67 63 60 56 51 48 47 45 44 43 43 42 41 40 39 38 38 38 36 35 35 36 35 34
76 74 74 72 72 71 71 71 72 73 71 69 69 68 66 64 64 65 63 63 65 66 69 73 79 88 100 110 116 119 120 120 122 124 123 120 120 122 122 122 121 119 118 119 119 118 117 115 113 108 105 105 105 106 105 101 92 83 76 70 67 63 61 58 54 50 47 44 42 41 41 40 41 41 40 39 38 37 36 36 35 35 37 37 36
76 75 74 73 72 71 70 70 70 71 70 69 68 69 68 65 64 66 66 65 64 65 67 70 76 83 90 99 106 112 116 117 119 122 123 123 124 124 124 124 122 120 120 120 119 117 115 112 109 108 108 108 107 106 104 96 87 78 73 68 63 59 57 55 52 49 46 44 42 40 38 37 38 39 39 38 37 36 35 34 34 34 36 37 37
76 75 73 73 72 71 70 70 69 70 69 68 69 69 69 67 65 66 67 67 66 65 66 69 73 78 85 91 98 104 108 111 114 118 121 124 125 125 124 124 121 122 121 119 116 114 112 110 110 110 108 106 103 102 98 90 79 70 65 62 59 56 53 51 47 45 43 42 40 38 36 34 35 36 37 36 36 35 34 33 32 33 35 37 37
76 75 74 73 72 71 71 70 70 70 70 69 68 69 70 70 68 67 68 68 68 67 66 67 70 75 81 86 91 97 102 105 107 111 115 117 118 119 120 120 120 121 119 116 114 112 112 111 110 108 104 100 98 97 92 83 71 63 59 56 54 51 49 44 39 37 37 37 37 36 34 32 32 32 32 33 34 34 33 31 30 31 33 35 36
78 77 74 73 72 72 72 71 71 71 71 70 69 69 70 70 71 70 68 68 69 69 68 67 68 71 75 80 86 91 96 101 102 104 107 110 113 114 115 117 117 116 115 113 112 112 111 109 106 102 99 96 94 93 86 75 63 58 54 52 50 47 44 39 34 32 31 33 34 33 31 30 31 30 28 28 30 31 31 30 27 27 31 34 35
79 78 77 75 73 73 73 73 72 72 71 71 70 70 70 70 70 71 70 69 70 71 71 70 69 70 72 75 80 84 88 94 97 99 101 105 110 110 111 113 112 111 111 110 109 109 106 104 100 96 93 92 90 85 75 62 55 52 49 48 46 42 38 33 30 28 27 28 29 29 29 29 30 29 26 24 26 27 27 28 26 24 26 30 32
81 81 80 78 76 74 73 74 74 73 72 72 72 71 71 70 69 70 71 71 71 72 73 73 72 72 73 74 77 80 83 86 90 94 97 101 104 105 106 107 107 106 105 104 103 102 99 97 93 90 89 86 81 71 60 53 48 46 45 43 40 36 32 28 25 25 24 24 24 25 26 27 28 28 25 22 22 21 21 24 25 23 24 26 29
84 84 83 80 78 76 74 74 74 75 74 73 73 72 71 71 71 71 71 70 70 71 72 73 74 75 76 76 77 79 81 83 86 89 92 96 98 99 100 99 98 98 97 96 96 93 90 88 86 85 83 76 68 60 53 49 47 45 43 39 35 30 26 23 21 21 21 20 20 21 23 25 26 25 24 21 19 17 16 20 23 22 23 24 26
88 87 86 83 81 78 76 75 74 75 76 75 74 74 73 73 72 72 73 72 70 70 71 72 74 75 77 78 78 79 80 82 84 86 88 90 92 94 93 92 91 89 88 88 87 84 82 81 82 80 74 67 61 56 52 49 47 44 40 36 32 27 25 22 20 19 18 18 18 20 21 22 23 22 20 18 17 15 14 18 21 21 23 25 24
90 91 89 87 84 81 79 76 74 75 76 77 76 75 75 74 74 73 73 73 72 70 69 71 72 74 75 77 78 80 82 82 83 84 86 87 88 90 90 88 87 85 84 82 81 80 79 78 77 74 68 64 59 55 51 48 45 42 38 34 30 27 26 24 21 18 16 16 17 19 20 19 20 20 16 14 14 14 15 18 19 20 23 25 24
92 95 93 91 87 84 81 78 76 74 74 75 76 76 75 75 75 74 73 74 74 72 70 69 70 71 73 74 75 78 80 82 83 84 85 85 86 87 88 87 86 85 83 81 80 78 77 76 74 70 65 61 56 52 49 45 42 39 35 32 29 28 28 25 21 17 16 16 17 18 19 17 17 16 12 9 10 12 14 17 19 19 21 24 25
96 98 97 95 91 88 85 82 78 76 74 73 74 74 75 75 75 75 74 73 74 73 71 69 68 68 70 71 71 73 75 77 79 81 82 83 84 85 86 86 85 84 82 81 79 76 75 73 71 67 62 57 52 48 45 42 39 36 32 30 29 29 27 25 20 17 16 15 16 16 16 15 14 12 8 5 8 11 13 15 18 19 20 23 24
102 104 102 100 96 93 89 86 82 79 76 74 73 73 73 74 74 75 74 74 73 73 73 72 69 67 68 69 70 70 71 73 74 75 77 78 79 80 82 83 84 83 82 80 77 75 72 69 66 62 57 52 48 44 40 38 34 31 28 26 26 26 24 21 18 17 16 15 16 15 13 12 11 10 7 5 8 11 13 14 16 18 20 22 23
108 110 109 106 101 97 93 89 86 83 81 79 77 75 73 72 73 73 74 74 73 73 73 74 72 69 68 68 68 69 69 70 71 71 72 73 74 75 75 77 80 81 79 77 75 71 68 64 58 54 51 46 42 38 35 32 28 25 24 22 22 21 18 17 16 15 15 15 14 13 12 12 10 9 7 7 9 12 13 13 15 18 19 21 23
116 117 117 111 106 101 97 93 89 86 84 83 81 79 76 74 72 71 72 72 73 73 72 73 74 73 71 69 68 68 68 68 68 69 69 69 70 70 69 68 70 72 72 71 68 65 63 58 51 45 41 38 34 32 29 26 23 20 20 18 17 17 16 14 13 13 14 14 13 13 12 12 11 10 9 10 12 13 15 14 15 17 19 21 23
125 125 123 116 111 107 102 98 95 91 88 85 83 81 79 77 75 73 72 71 70 71 71 72 72 73 73 72 70 68 67 66 66 65 64 64 64 64 64 61 60 60 61 61 59 56 53 49 44 37 33 30 27 25 23 21 19 17 16 15 14 15 14 13 12 12 13 12 12 12 12 12 12 12 13 15 16 16 17 17 16 17 18 20 22
137 135 129 123 116 113 109 104 100 96 91 85 82 80 79 77 76 75 74 73 73 71 71 71 71 72 72 72 71 69 67 64 62 61 59 58 57 56 57 55 54 52 51 51 47 43 40 38 35 30 26 24 21 20 18 16 15 14 12 11 12 14 13 13 12 12 12 11 11 11 12 12 12 15 17 19 19 19 20 18 17 18 20 21 21
147 146 139 131 124 118 115 109 104 99 93 88 83 78 78 76 74 74 74 74 76 76 75 73 72 71 71 70 69 67 65 62 58 55 52 51 50 50 50 49 48 46 44 41 37 33 28 27 27 23 21 19 16 16 14 12 12 11 9 8 11 13 13 13 12 12 12 10 9 9 11 12 12 14 17 19 20 20 21 20 17 18 21 22 21
157 159 152 142 134 127 123 115 108 102 96 91 85 78 74 72 72 72 73 73 74 76 77 76 75 73 71 70 67 64 62 59 55 51 47 44 41 40 40 40 40 38 37 33 30 25 21 18 17 16 15 13 12 13 11 10 10 10 8 8 9 11 12 12 11 11 11 10 8 7 10 12 12 13 14 16 18 20 21 20 17 18 21 23 22
169 171 167 157 147 139 133 125 115 108 99 91 85 79 72 68 66 66 68 69 70 72 75 76 77 75 73 71 69 65 61 56 52 48 44 39 35 33 30 30 30 28 27 24 22 19 16 12 9 8 9 8 8 8 6 5 7 8 7 7 8 9 10 11 10 8 9 9 6 7 9 11 12 11 11 11 14 17 18 18 17 18 21 22 22
180 179 177 172 164 154 146 138 128 118 105 92 83 76 68 64 61 59 61 64 65 67 67 71 75 74 73 73 72 70 65 59 53 47 43 36 31 29 25 22 19 16 14 12 12 12 10 6 2 359 1 3 3 2 359 358 1 4 5 5 6 7 7 8 6 5 6 6 5 6 9 11 12 11 9 8 9 12 13 14 15 16 18 20 21
187 186 185 183 179 171 163 155 149 141 119 94 76 66 59 55 53 49 49 52 59 60 56 57 65 69 70 70 70 71 69 64 56 47 42 33 26 23 18 13 10 5 2 1 1 1 1 1 358 351 351 357 1 1 358 358 0 3 3 5 8 8 4 2 2 2 3 3 3 6 8 11 12 10 9 8 7 7 8 8 10 12 14 15 17
192 190 190 189 188 185 181 177 175 172 149 91 61 53 48 44 41 39 35 34 41 46 42 41 47 53 58 61 59 60 60 58 54 46 37 29 23 17 11 5 359 355 353 352 352 352 353 354 352 347 348 352 357 360 360 2 7 9 7 9 11 7 0 356 356 360 4 3 1 4 7 10 10 8 7 6 5 5 4 4 6 7 8 9 12
197 194 192 193 194 193 193 191 193 197 198 55 38 37 40 39 36 33 29 26 27 28 26 30 30 26 33 43 41 40 40 37 34 32 27 21 16 11 5 0 354 349 348 347 346 347 348 349 348 348 351 353 353 356 0 6 12 14 12 11 9 5 358 354 354 1 6 6 3 3 4 5 6 5 5 4 4 3 2 1 2 3 4 4 5
199 197 194 195 196 199 200 200 202 206 209 259 22 24 28 34 34 33 28 22 22 21 19 21 18 10 14 22 21 18 18 15 12 9 7 3 0 359 357 355 352 351 351 350 349 350 350 350 350 350 352 352 352 355 360 7 12 12 12 11 9 7 4 2 2 5 7 8 6 5 3 3 3 2 3 3 3 2 1 1 1 1 0 1 2
203 200 198 198 200 202 204 206 210 212 213 219 354 12 14 19 24 28 25 20 18 17 17 15 11 6 7 7 3 358 353 350 348 343 342 341 339 340 340 345 348 352 353 354 353 352 349 347 347 346 346 347 349 351 354 359 4 6 7 7 8 9 9 8 7 6 6 7 7 6 4 2 1 1 0 2 2 2 2 2 2 1 358 358 0
204 202 201 203 204 206 209 211 215 217 219 222 258 340 356 3 7 14 17 16 12 10 11 12 8 3 1 358 352 346 341 340 337 334 331 329 327 327 329 332 336 338 339 339 340 339 336 334 334 335 336 339 342 346 349 351 354 359 2 2 4 6 7 8 7 4 3 5 6 6 5 3 1 360 359 360 0 1 1 2 1 1 358 358 2
206 204 205 206 208 210 213 216 220 222 222 225 242 290 327 344 351 357 0 5 6 2 1 4 1 358 355 352 347 341 338 338 337 334 331 330 329 329 327 326 326 326 327 329 331 332 331 330 331 333 335 338 341 344 346 347 350 356 0 1 0 1 2 3 4 3 3 4 4 6 5 4 2 359 358 358 359 359 0 1 1 1 1 3 7
209 207 207 208 210 213 216 219 223 225 226 230 239 264 297 318 330 339 341 345 351 351 350 352 352 350 347 345 342 338 338 339 339 337 336 336 337 336 334 332 331 331 332 336 339 341 341 340 341 344 346 348 349 349 350 351 354 359 2 2 360 360 1 2 5 7 7 7 7 7 7 6 4 1 359 358 358 358 359 1 2 4 7 11 14
212 210 209 209 211 214 218 221 223 226 227 230 238 253 274 292 305 315 320 324 328 331 334 337 339 341 341 340 339 336 338 341 342 340 340 342 343 343 344 343 344 345 347 350 352 353 355 356 356 358 1 0 358 357 359 360 1 3 5 5 5 5 6 8 10 13 14 14 11 10 8 8 7 6 4 1 0 359 360 2 5 7 11 15 16
215 213 212 211 213 216 219 222 224 226 228 232 238 247 260 275 286 293 299 305 307 310 316 321 324 329 332 335 334 333 336 341 343 342 343 347 349 347 350 353 355 357 359 2 3 4 6 7 8 10 10 7 3 3 4 5 6 7 7 9 11 13 15 16 17 18 19 20 18 15 13 11 10 10 9 6 5 4 4 7 8 8 11 15 15
219 218 216 215 215 218 221 223 225 228 231 234 239 246 255 266 276 282 286 288 291 293 298 304 309 315 320 326 326 326 331 336 341 342 344 350 352 351 353 358 3 6 12 16 15 15 14 12 15 17 16 12 8 8 9 8 9 12 12 12 15 19 22 24 25 25 25 24 22 19 18 17 15 14 14 12 14 16 14 12 9 7 8 12 14
223 223 222 220 220 221 224 227 229 232 235 238 241 246 253 261 268 273 276 278 279 279 282 287 293 300 306 312 317 319 323 329 334 337 343 351 355 355 356 1 7 13 21 27 28 26 19 14 16 19 19 20 19 19 19 17 15 18 19 17 17 20 24 28 30 31 31 30 27 24 21 21 21 21 19 20 23 22 17 14 11 6 5 9 11
225 226 227 226 225 226 229 232 233 236 238 240 243 247 252 257 262 265 269 270 270 270 270 273 277 283 292 298 304 309 313 320 326 331 340 351 356 358 0 2 8 17 25 32 35 32 22 14 14 16 18 24 29 30 29 26 24 26 27 26 24 24 26 30 34 35 35 34 32 30 25 24 26 27 26 26 23 18 16 16 15 11 8 11 15
222 225 227 228 228 229 232 234 237 239 241 242 243 245 249 253 256 260 263 265 265 264 263 265 267 271 277 283 289 296 303 311 319 325 335 347 355 359 2 4 8 16 24 31 35 32 24 14 8 9 14 21 29 36 36 33 31 31 33 33 33 33 33 36 41 44 46 45 43 40 35 33 32 32 32 30 26 22 22 24 25 25 25 28 31
218 221 224 226 227 228 231 234 236 238 240 241 241 241 244 248 250 254 258 260 262 261 259 258 260 263 266 271 277 284 291 301 311 319 327 340 350 357 2 5 7 14 22 30 33 29 21 9 359 358 3 11 21 33 39 42 41 40 38 38 39 39 40 43 48 54 59 60 59 56 54 51 49 48 46 43 41 40 41 41 42 45 48 50 53
219 220 221 223 224 225 227 231 233 235 236 237 236 234 236 240 243 246 251 254 256 257 255 253 253 256 258 260 266 273 282 293 303 310 318 332 344 351 357 3 5 10 21 30 32 29 20 6 351 344 346 352 5 21 34 44 49 49 45 42 42 42 43 46 50 58 65 69 70 70 70 71 70 69 67 65 63 63 63 64 64 66 67 69 69
227 225 224 223 223 223 225 228 231 232 233 234 233 228 228 232 235 238 244 247 249 250 250 249 249 250 253 256 260 267 276 287 298 304 313 324 338 343 350 1 3 5 18 31 32 29 25 12 353 338 333 334 345 0 14 30 44 52 51 46 43 42 44 45 48 55 65 71 74 76 77 79 81 81 81 81 80 78 77 77 78 78 79 79 79
236 234 231 229 227 226 227 228 231 232 232 233 232 227 224 227 229 232 236 239 241 243 244 245 246 247 250 255 259 266 273 283 291 298 308 319 335 341 345 358 1 356 8 29 31 27 28 22 1 340 325 321 326 335 342 353 23 44 51 48 42 39 39 40 42 50 61 69 73 77 81 84 86 87 88 89 89 87 84 81 80 81 82 82 82
242 240 238 235 234 232 231 230 231 232 232 233 233 229 225 226 227 229 233 235 235 237 238 238 240 243 247 253 259 264 270 278 284 291 299 310 326 337 343 358 4 348 351 13 22 20 24 23 6 343 321 307 304 310 316 322 337 0 19 31 35 36 35 34 33 38 50 62 70 75 78 84 88 90 90 92 94 92 87 84 82 80 78 77 77
246 243 241 239 237 235 234 233 232 232 231 231 232 231 227 226 228 230 232 234 234 233 232 232 234 237 243 248 253 259 265 271 277 282 291 302 314 327 337 354 2 342 337 350 1 2 4 6 359 341 318 300 289 288 294 303 318 333 342 346 357 12 22 27 26 21 22 34 49 61 65 72 83 89 92 95 97 94 89 86 83 78 73 71 69
251 248 245 243 240 238 236 234 233 231 230 228 228 228 226 225 227 230 232 235 235 233 231 229 230 234 238 242 248 254 259 264 271 278 285 295 304 316 330 349 352 332 330 336 340 339 337 338 334 323 308 292 283 281 282 288 299 317 331 331 332 338 349 3 14 12 359 355 2 11 11 16 34 63 85 95 98 98 95 88 81 73 64 59 57
253 253 250 247 244 241 239 237 233 231 229 226 225 225 224 223 225 228 231 234 234 233 231 229 229 232 234 238 243 249 253 257 265 274 283 291 297 305 319 350 349 330 330 330 329 323 314 307 307 301 289 278 275 275 277 279 283 291 303 312 315 320 328 337 345 351 348 329 309 304 307 305 299 290 283 281 279 130 110 96 77 61 47 40 37
Height
10994 10992 10990 10988 10987 10987 10985 10981 10976 10974 10972 10970 10967 10963 10960 10958 10956 10954 10953 10952 10951 10951 10950 10951 10951 10952 10953 10953 10953 10954 10954 10953 10953 10953 10954 10955 10956 10957 10958 10959 10961 10962 10963 10964 10965 10966 10966 10967 10968 10968 10969 10968 10968 10967 10967 10967 10966 10966 10966 10965 10964 10963 10962 10960 10959 10957 10955 10953 10951 10949 10947 10946 10944 10942 10940 10938 10936 10934 10931 10928 10925 10922 10918 10914 10911
10997 10995 10994 10992 10991 10990 10988 10986 10985 10983 10982 10981 10980 10976 10970 10966 10961 10957 10955 10953 10952 10951 10951 10951 10951 10952 10953 10954 10955 10956 10956 10956 10956 10956 10956 10957 10958 10959 10960 10961 10962 10964 10965 10966 10967 10968 10968 10969 10970 10970 10970 10969 10969 10968 10968 10968 10968 10968 10967 10966 10966 10964 10963 10962 10960 10958 10956 10954 10952 10951 10949 10947 10945 10944 10942 10940 10937 10935 10932 10929 10926 10923 10920 10917 10913
10999 10998 10997 10995 10994 10993 10991 10990 10988 10987 10986 10985 10985 10981 10976 10971 10965 10961 10958 10956 10954 10952 10952 10952 10952 10953 10954 10956 10957 10957 10958 10958 10958 10959 10959 10960 10960 10961 10962 10963 10964 10966 10967 10968 10969 10970 10971 10971 10971 10971 10970 10970 10970 10970 10970 10970 10970 10969 10969 10968 10967 10966 10964 10963 10961 10960 10958 10956 10954 10952 10950 10948 10947 10945 10943 10941 10939 10936 10933 10931 10928 10925 10922 10919 10916
11001 11000 10999 10998 10997 10995 10993 10992 10991 10990 10989 10987 10985 10981 10978 10974 10969 10965 10961 10958 10956 10954 10953 10953 10954 10954 10955 10957 10958 10959 10960 10960 10961 10961 10961 10962 10963 10964 10964 10965 10967 10968 10969 10970 10971 10972 10972 10973 10972 10972 10972 10972 10971 10971 10971 10971 10971 10971 10970 10969 10968 10967 10966 10964 10962 10961 10959 10958 10956 10954 10952 10950 10948 10946 10944 10942 10940 10937 10935 10932 10929 10926 10924 10921 10918
11003 11002 11001 11000 10999 10998 10996 10995 10993 10992 10991 10989 10987 10983 10979 10976 10971 10968 10964 10961 10958 10956 10955 10955 10955 10956 10957 10958 10959 10960 10961 10962 10963 10963 10964 10965 10966 10966 10967 10968 10969 10971 10972 10973 10973 10974 10974 10974 10973 10973 10973 10973 10973 10973 10973 10973 10972 10972 10971 10970 10969 10968 10967 10965 10964 10962 10961 10959 10957 10955 10954 10951 10949 10948 10946 10944 10941 10939 10936 10934 10931 10928 10925 10922 10920
11005 11004 11003 11002 11001 11000 10999 10997 10995 10994 10993 10990 10988 10985 10981 10978 10975 10971 10967 10964 10961 10959 10957 10957 10957 10957 10958 10959 10960 10961 10962 10963 10965 10965 10966 10968 10968 10969 10970 10971 10972 10973 10974 10975 10975 10975 10975 10975 10975 10975 10975 10975 10975 10975 10974 10974 10974 10973 10973 10972 10971 10969 10968 10967 10965 10964 10963 10961 10959 10957 10955 10953 10951 10949 10947 10945 10943 10940 10938 10935 10933 10930 10927 10924 10922
11007 11006 11005 11004 11003 11002 11001 10999 10998 10997 10995 10993 10991 10988 10984 10980 10978 10974 10971 10967 10964 10961 10959 10959 10959 10959 10960 10960 10961 10962 10963 10965 10966 10968 10969 10970 10971 10972 10972 10973 10974 10975 10976 10977 10977 10977 10977 10977 10977 10977 10977 10977 10976 10976 10976 10976 10975 10975 10974 10973 10972 10971 10969 10968 10967 10965 10964 10962 10961 10959 10957 10955 10953 10950 10948 10946 10944 10942 10939 10937 10934 10932 10929 10926 10923
11009 11008 11007 11006 11004 11003 11002 11001 11000 10998 10997 10995 10993 10990 10987 10984 10981 10978 10975 10970 10967 10964 10962 10961 10961 10961 10961 10962 10963 10964 10965 10967 10968 10970 10972 10973 10974 10975 10975 10976 10977 10978 10978 10979 10979 10979 10979 10979 10979 10979 10978 10978 10978 10978 10977 10977 10977 10976 10975 10974 10973 10972 10971 10969 10968 10967 10966 10964 10962 10961 10959 10956 10954 10952 10950 10947 10945 10943 10941 10939 10936 10933 10931 10928 10925
11010 11009 11008 11007 11006 11005 11004 11002 11001 10999 10998 10996 10995 10992 10990 10988 10985 10982 10978 10974 10970 10967 10965 10964 10963 10963 10964 10964 10965 10966 10967 10968 10970 10972 10974 10975 10977 10978 10978 10979 10979 10980 10980 10981 10981 10981 10981 10981 10981 10981 10980 10980 10980 10979 10979 10979 10978 10978 10977 10976 10974 10973 10972 10971 10970 10969 10967 10966 10964 10962 10960 10958 10956 10953 10951 10949 10947 10945 10942 10940 10938 10935 10932 10930 10927
11012 11011 11010 11009 11008 11006 11005 11004 11002 11001 10999 10998 10996 10994 10992 10990 10987 10984 10981 10977 10974 10971 10968 10967 10967 10966 10967 10967 10968 10968 10969 10970 10972 10974 10975 10976 10978 10979 10980 10981 10981 10982 10982 10982 10983 10983 10983 10983 10983 10983 10982 10982 10981 10981 10981 10981 10980 10979 10978 10977 10976 10975 10974 10973 10972 10970 10969 10967 10966 10964 10962 10960 10957 10955 10952 10950 10948 10946 10944 10942 10940 10937 10934 10932 10929
11014 11013 11012 11011 11009 11008 11006 11005 11003 11002 11001 10999 10998 10995 10994 10992 10990 10987 10984 10981 10978 10975 10973 10972 10971 10971 10970 10970 10971 10971 10972 10973 10974 10976 10977 10979 10980 10981 10982 10983 10983 10984 10984 10984 10985 10985 10985 10985 10984 10984 10984 10984 10983 10983 10983 10982 10982 10981 10980 10979 10978 10977 10975 10974 10973 10972 10971 10969 10967 10965 10963 10961 10959 10956 10954 10952 10950 10948 10946 10943 10941 10939 10936 10934 10931
11016 11015 11014 11013 11011 11010 11008 11007 11005 11004 11003 11001 10999 10997 10996 10994 10992 10990 10988 10985 10983 10980 10978 10977 10976 10976 10975 10975 10974 10975 10975 10976 10977 10979 10981 10982 10982 10983 10984 10985 10985 10985 10985 10986 10986 10987 10987 10986 10986 10986 10986 10986 10985 10985 10985 10984 10983 10982 10981 10980 10979 10978 10977 10975 10974 10973 10972 10970 10968 10966 10965 10962 10960 10957 10955 10953 10951 10949 10947 10945 10943 10941 10938 10935 10933
11018 11017 11016 11015 11014 11012 11011 11009 11008 11006 11004 11003 11001 11000 10998 10997 10995 10994 10992 10990 10988 10985 10983 10982 10982 10981 10980 10979 10979 10979 10979 10980 10980 10982 10983 10984 10984 10985 10985 10986 10986 10987 10987 10988 10988 10988 10989 10989 10988 10988 10988 10988 10987 10987 10986 10985 10985 10984 10983 10982 10980 10979 10978 10977 10975 10974 10973 10971 10969 10968 10966 10963 10961 10958 10956 10954 10952 10950 10948 10946 10944 10942 10940 10937 10935
11020 11019 11018 11017 11016 11014 11013 11012 11010 11008 11007 11005 11004 11002 11001 11000 10998 10997 10996 10994 10993 10990 10989 10988 10988 10987 10986 10985 10984 10983 10983 10984 10984 10985 10986 10987 10987 10987 10987 10988 10988 10989 10989 10990 10990 10991 10991 10991 10991 10991 10990 10990 10989 10989 10988 10987 10986 10985 10984 10983 10982 10980 10979 10978 10977 10975 10974 10972 10970 10969 10967 10964 10962 10959 10957 10955 10953 10951 10949 10947 10945 10943 10940 10938 10936
11021 11021 11020 11019 11018 11016 11015 11014 11012 11011 11009 11008 11006 11005 11004 11003 11002 11001 10999 10998 10997 10995 10994 10993 10993 10992 10991 10991 10990 10989 10988 10988 10989 10989 10990 10990 10990 10990 10990 10991 10991 10991 10992 10992 10993 10993 10993 10993 10993 10993 10992 10992 10991 10990 10990 10989 10988 10987 10985 10984 10983 10982 10981 10979 10978 10976 10974 10973 10971 10970 10968 10965 10963 10960 10958 10957 10955 10952 10951 10949 10946 10944 10941 10939 10937
11023 11022 11022 11020 11019 11018 11017 11016 11015 11013 11012 11010 11009 11008 11007 11006 11005 11004 11003 11002 11001 11000 10999 10998 10998 10997 10996 10996 10995 10994 10994 10993 10993 10993 10994 10994 10993 10993 10994 10994 10994 10994 10995 10995 10996 10996 10996 10995 10995 10994 10994 10993 10993 10992 10991 10990 10989 10988 10987 10985 10984 10983 10982 10980 10979 10977 10975 10974 10973 10971 10968 10966 10964 10961 10959 10958 10956 10954 10952 10950 10947 10945 10942 10940 10938
11025 11024 11023 11022 11021 11020 11019 11018 11017 11016 11014 11013 11012 11011 11010 11009 11008 11007 11006 11006 11005 11004 11003 11002 11002 11001 11000 11000 10999 10998 10998 10998 10998 10997 10998 10998 10997 10996 10996 10997 10997 10997 10998 10998 10998 10998 10998 10997 10997 10996 10996 10995 10994 10994 10993 10992 10990 10989 10988 10987 10985 10984 10983 10981 10979 10978 10977 10975 10973 10971 10969 10967 10965 10962 10961 10959 10957 10955 10953 10951 10949 10946 10943 10941 10939
11027 11026 11025 11024 11023 11022 11021 11020 11020 11018 11017 11016 11015 11014 11013 11012 11011 11010 11009 11009 11008 11008 11008 11007 11006 11005 11004 11003 11003 11002 11001 11001 11001 11000 11001 11001 11000 10999 10999 10999 10999 10999 11000 11000 11000 11000 11000 10999 10999 10998 10997 10997 10996 10995 10994 10993 10992 10990 10989 10988 10987 10985 10983 10982 10980 10979 10978 10976 10974 10972 10970 10968 10966 10964 10962 10960 10958 10956 10954 10952 10950 10948 10945 10942 10940
11028 11027 11026 11025 11024 11024 11023 11022 11022 11021 11020 11019 11017 11016 11016 11015 11013 11013 11012 11011 11011 11011 11011 11010 11009 11008 11007 11007 11006 11005 11004 11004 11003 11003 11003 11003 11003 11002 11001 11001 11001 11001 11002 11002 11002 11002 11001 11001 11000 10999 10999 10998 10997 10996 10995 10994 10993 10991 10990 10989 10988 10986 10984 10983 10981 10980 10979 10977 10975 10973 10971 10969 10967 10965 10963 10961 10959 10957 10955 10953 10951 10949 10946 10943 10941
11029 11028 11028 11027 11026 11025 11024 11024 11023 11023 11022 11021 11020 11019 11018 11017 11016 11015 11015 11014 11014 11013 11013 11013 11013 11012 11011 11010 11009 11008 11007 11007 11006 11006 11005 11005 11005 11005 11004 11003 11003 11003 11003 11004 11004 11003 11003 11002 11001 11001 11000 10999 10999 10998 10996 10995 10994 10992 10991 10990 10988 10987 10985 10984 10982 10981 10979 10977 10975 10973 10971 10970 10968 10966 10964 10963 10961 10958 10956 10954 10952 10950 10947 10945 10942
11030 11030 11029 11028 11027 11027 11026 11025 11025 11024 11024 11023 11022 11021 11021 11019 11018 11018 11017 11017 11016 11016 11016 11016 11015 11015 11014 11012 11012 11011 11010 11010 11009 11009 11008 11008 11007 11007 11007 11006 11005 11005 11005 11005 11005 11005 11004 11003 11003 11002 11001 11001 11000 10998 10997 10996 10994 10993 10992 10991 10989 10988 10986 10985 10983 10981 10980 10978 10976 10974 10972 10971 10969 10967 10965 10963 10962 10960 10957 10955 10953 10951 10949 10946 10944
11031 11031 11030 11030 11029 11028 11027 11026 11026 11026 11025 11025 11024 11024 11023 11022 11021 11020 11019 11019 11019 11018 11018 11018 11017 11017 11016 11015 11014 11014 11013 11012 11012 11011 11011 11010 11010 11009 11009 11008 11007 11007 11007 11006 11006 11006 11005 11005 11004 11003 11002 11001 11000 10999 10998 10997 10996 10994 10993 10992 10990 10989 10987 10986 10984 10982 10980 10979 10977 10975 10973 10972 10970 10968 10966 10964 10962 10961 10959 10957 10955 10953 10950 10948 10945
11032 11032 11032 11031 11030 11029 11029 11028 11027 11027 11027 11027 11026 11025 11024 11024 11023 11022 11021 11021 11021 11020 11020 11020 11019 11019 11018 11017 11016 11016 11015 11014 11014 11013 11013 11012 11012 11011 11011 11010 11009 11009 11008 11008 11007 11007 11006 11006 11005 11004 11003 11002 11001 11000 10999 10998 10996 10995 10994 10993 10991 10990 10989 10987 10985 10983 10981 10980 10978 10976 10974 10972 10971 10969 10967 10965 10963 10962 10960 10958 10956 10954 10952 10950 10947
11034 11033 11033 11032 11031 11030 11030 11029 11029 11028 11028 11028 11027 11027 11026 11025 11025 11024 11023 11023 11022 11022 11022 11021 11021 11020 11019 11019 11018 11017 11017 11016 11015 11015 11014 11014 11014 11013 11012 11012 11011 11010 11009 11009 11008 11008 11007 11007 11006 11005 11004 11003 11002 11001 11000 10998 10997 10996 10995 10994 10992 10991 10990 10988 10986 10984 10982 10981 10979 10977 10975 10973 10971 10970 10968 10966 10965 10963 10961 10959 10958 10956 10954 10951 10949
11034 11034 11034 11033 11032 11032 11031 11030 11030 11029 11029 11029 11029 11028 11028 11027 11026 11026 11025 11024 11024 11023 11023 11023 11022 11021 11021 11020 11019 11018 11018 11017 11016 11016 11016 11015 11015 11014 11014 11013 11012 11012 11011 11010 11009 11009 11008 11007 11006 11005 11004 11004 11002 11001 11000 10999 10998 10997 10996 10995 10994 10992 10990 10989 10987 10985 10983 10981 10979 10977 10976 10974 10972 10970 10969 10967 10966 10964 10962 10961 10959 10957 10955 10953 10951
11035 11035 11034 11034 11033 11033 11032 11032 11031 11031 11030 11030 11030 11029 11029 11029 11028 11027 11026 11026 11025 11024 11024 11023 11023 11022 11022 11021 11020 11019 11019 11018 11018 11017 11017 11016 11016 11015 11015 11014 11013 11013 11012 11011 11010 11009 11009 11008 11007 11006 11005 11004 11003 11002 11001 11000 10999 10999 10997 10996 10994 10993 10991 10989 10988 10986 10984 10982 10980 10978 10976 10974 10973 10971 10969 10968 10967 10965 10963 10962 10960 10958 10956 10954 10952
11035 11035 11035 11034 11034 11033 11033 11033 11032 11032 11031 11031 11031 11031 11030 11030 11029 11029 11028 11027 11026 11025 11024 11024 11023 11022 11022 11021 11021 11020 11020 11019 11019 11018 11018 11017 11017 11016 11016 11015 11014 11014 11013 11012 11011 11010 11009 11008 11007 11007 11006 11005 11004 11003 11002 11001 11001 11000 10998 10997 10995 10993 10992 10990 10988 10987 10985 10983 10981 10979 10977 10975 10973 10972 10970 10969 10968 10966 10964 10963 10961 10959 10957 10955 10953
11034 11035 11035 11035 11034 11034 11033 11033 11033 11033 11032 11032 11032 11031 11031 11031 11030 11030 11029 11028 11027 11026 11025 11024 11023 11022 11022 11021 11021 11021 11020 11020 11019 11019 11019 11018 11017 11017 11016 11016 11015 11014 11014 11012 11011 11011 11010 11009 11008 11007 11007 11006 11005 11004 11004 11003 11002 11001 10999 10997 10996 10994 10992 10991 10989 10987 10985 10983 10982 10980 10978 10976 10974 10973 10971 10970 10968 10967 10966 10964 10963 10960 10958 10956 10954
11034 11034 11035 11035 11034 11034 11034 11034 11034 11033 11033 11033 11032 11032 11032 11032 11031 11031 11030 11029 11027 11026 11025 11024 11024 11023 11022 11022 11021 11021 11021 11020 11020 11019 11019 11018 11018 11017 11017 11016 11015 11015 11014 11013 11012 11011 11010 11009 11008 11008 11008 11007 11006 11005 11004 11003 11002 11001 10999 10998 10996 10994 10992 10991 10989 10987 10986 10984 10982 10981 10979 10977 10975 10974 10972 10971 10969 10968 10967 10965 10964 10962 10959 10957 10955
11033 11034 11034 11035 11035 11035 11034 11034 11034 11034 11034 11034 11033 11033 11032 11032 11032 11031 11030 11029 11028 11026 11026 11025 11024 11023 11023 11022 11021 11021 11021 11020 11020 11019 11019 11019 11018 11017 11017 11016 11016 11015 11014 11013 11012 11011 11011 11010 11008 11008 11008 11007 11006 11006 11004 11003 11002 11001 10999 10998 10996 10994 10993 10991 10989 10988 10986 10985 10983 10981 10980 10978 10977 10975 10973 10971 10970 10969 10967 10966 10965 10963 10961 10959 10957
11033 11034 11034 11035 11035 11035 11035 11035 11035 11034 11034 11034 11034 11033 11033 11032 11032 11031 11030 11029 11028 11027 11026 11026 11025 11024 11023 11022 11022 11021 11021 11020 11020 11019 11019 11018 11018 11017 11017 11016 11016 11015 11014 11013 11012 11012 11011 11010 11009 11008 11008 11006 11006 11005 11004 11003 11002 11000 10999 10998 10997 10995 10993 10992 10990 10989 10987 10986 10984 10982 10981 10979 10978 10976 10974 10972 10971 10969 10968 10967 10965 10963 10962 10960 10958
11032 11033 11034 11034 11035 11035 11035 11035 11035 11035 11035 11035 11035 11034 11033 11033 11032 11031 11031 11030 11029 11028 11027 11026 11025 11025 11024 11023 11022 11021 11021 11020 11020 11019 11019 11018 11018 11017 11017 11016 11016 11015 11014 11013 11012 11011 11011 11010 11009 11008 11007 11006 11005 11005 11004 11002 11001 11000 10999 10998 10997 10996 10994 10992 10991 10990 10988 10987 10985 10983 10981 10980 10979 10977 10975 10973 10972 10970 10968 10967 10965 10964 10962 10960 10959
11031 11032 11033 11034 11034 11035 11035 11035 11035 11035 11035 11035 11035 11035 11034 11033 11032 11032 11031 11031 11030 11029 11028 11027 11026 11026 11024 11023 11023 11022 11021 11021 11020 11019 11019 11018 11017 11017 11016 11016 11015 11015 11014 11013 11012 11011 11010 11009 11008 11007 11007 11006 11005 11004 11003 11002 11001 11001 11000 10998 10997 10996 10994 10993 10991 10990 10989 10987 10985 10984 10982 10981 10979 10978 10976 10974 10972 10971 10969 10967 10966 10964 10962 10961 10959
11031 11032 11032 11033 11034 11034 11034 11035 11035 11035 11036 11036 11035 11035 11034 11034 11033 11032 11032 11031 11030 11029 11028 11028 11027 11026 11025 11024 11023 11023 11022 11021 11021 11020 11019 11018 11017 11017 11016 11016 11015 11015 11014 11013 11012 11011 11010 11009 11008 11007 11006 11005 11003 11002 11002 11001 11001 11000 10999 10998 10997 10996 10994 10993 10992 10991 10989 10988 10986 10984 10983 10981 10980 10978 10976 10974 10973 10971 10969 10968 10966 10964 10963 10961 10959
11030 11031 11032 11032 11033 11033 11034 11034 11035 11035 11035 11035 11036 11035 11034 11034 11033 11032 11032 11031 11030 11029 11028 11028 11027 11027 11026 11025 11024 11023 11023 11022 11021 11020 11019 11019 11018 11017 11016 11016 11015 11015 11014 11013 11013 11011 11010 11009 11008 11007 11005 11004 11003 11002 11001 11000 11000 10999 10999 10997 10996 10995 10994 10993 10992 10990 10989 10988 10986 10984 10983 10981 10980 10978 10977 10975 10973 10971 10970 10968 10967 10965 10963 10961 10960
11029 11030 11031 11031 11032 11033 11033 11034 11034 11034 11035 11035 11035 11035 11034 11034 11033 11032 11032 11031 11030 11029 11029 11028 11027 11027 11026 11025 11025 11024 11023 11022 11022 11021 11020 11019 11018 11017 11016 11016 11015 11014 11014 11013 11012 11011 11010 11009 11008 11007 11006 11005 11004 11003 11002 11000 10999 10999 10998 10997 10996 10994 10993 10992 10991 10990 10989 10988 10986 10985 10983 10982 10980 10979 10977 10975 10974 10972 10970 10969 10967 10965 10963 10962 10960
11028 11029 11030 11030 11031 11032 11032 11033 11033 11033 11034 11034 11035 11034 11034 11033 11032 11032 11031 11031 11030 11029 11029 11028 11027 11027 11027 11026 11025 11024 11023 11023 11022 11021 11020 11019 11018 11017 11016 11015 11015 11014 11013 11012 11012 11010 11009 11008 11007 11006 11006 11005 11004 11003 11002 11001 11000 10999 10998 10997 10996 10995 10994 10992 10991 10990 10989 10988 10986 10985 10984 10982 10981 10979 10977 10976 10974 10973 10971 10969 10967 10965 10963 10962 10961
11026 11027 11028 11029 11030 11031 11031 11032 11032 11032 11033 11033 11034 11034 11033 11033 11032 11032 11031 11030 11030 11029 11028 11028 11027 11027 11026 11026 11025 11024 11024 11023 11022 11021 11020 11019 11018 11017 11016 11015 11015 11014 11013 11012 11011 11010 11009 11008 11007 11006 11006 11005 11004 11003 11002 11001 11000 11000 10999 10998 10997 10995 10994 10993 10992 10991 10989 10988 10987 10985 10984 10982 10981 10979 10978 10976 10975 10973 10971 10969 10967 10966 10964 10963 10962
11024 11026 11027 11028 11029 11029 11030 11030 11031 11031 11032 11032 11033 11033 11033 11032 11032 11031 11030 11030 11029 11028 11028 11027 11027 11026 11026 11026 11025 11024 11024 11023 11022 11021 11020 11019 11018 11017 11016 11015 11015 11014 11013 11012 11011 11010 11009 11008 11007 11007 11006 11005 11004 11003 11003 11002 11001 11000 10999 10998 10997 10996 10995 10994 10992 10991 10990 10988 10987 10986 10984 10983 10981 10980 10978 10977 10975 10974 10972 10970 10968 10967 10965 10964 10963
11022 11024 11025 11026 11027 11028 11028 11029 11029 11030 11030 11031 11032 11032 11032 11031 11031 11030 11030 11029 11029 11028 11027 11027 11026 11026 11025 11025 11025 11024 11024 11023 11022 11021 11020 11019 11018 11017 11016 11015 11014 11014 11013 11012 11011 11010 11009 11008 11007 11007 11006 11005 11004 11003 11003 11002 11001 11001 11000 10999 10997 10996 10995 10994 10993 10992 10990 10989 10988 10986 10985 10983 10982 10980 10979 10978 10976 10975 10973 10971 10969 10968 10966 10965 10964
11021 11022 11023 11024 11025 11026 11026 11027 11028 11028 11029 11030 11030 11031 11031 11030 11030 11029 11029 11028 11028 11027 11027 11026 11026 11025 11025 11025 11024 11024 11023 11022 11022 11021 11020 11019 11018 11017 11016 11015 11014 11014 11013 11012 11011 11010 11009 11008 11007 11007 11006 11006 11005 11004 11003 11002 11001 11001 11000 10999 10997 10996 10995 10994 10993 10992 10991 10989 10988 10986 10985 10984 10982 10981 10980 10979 10977 10976 10975 10973 10971 10969 10967 10966 10965
11018 11020 11021 11022 11023 11024 11025 11025 11026 11027 11028 11028 11029 11029 11029 11029 11028 11028 11027 11027 11027 11026 11026 11026 11025 11025 11024 11024 11024 11024 11023 11022 11021 11021 11020 11019 11018 11017 11017 11016 11015 11014 11013 11012 11011 11010 11009 11009 11008 11007 11007 11006 11005 11005 11004 11003 11002 11001 11000 10999 10998 10996 10995 10994 10993 10992 10991 10990 10988 10987 10986 10984 10983 10982 10981 10980 10979 10978 10976 10975 10973 10971 10969 10968 10967
11015 11017 11018 11020 11021 11022 11022 11023 11024 11025 11025 11026 11027 11027 11027 11027 11027 11026 11026 11025 11025 11025 11025 11024 11024 11024 11024 11024 11023 11023 11023 11022 11021 11021 11020 11019 11018 11018 11017 11016 11015 11014 11014 11013 11012 11011 11010 11009 11009 11008 11007 11007 11006 11005 11005 11004 11003 11002 11001 11000 10999 10997 10996 10995 10994 10993 10992 10991 10990 10988 10987 10986 10985 10984 10982 10981 10980 10979 10978 10976 10974 10973 10971 10970 10968
11012 11013 11015 11016 11017 11018 11019 11020 11020 11021 11022 11023 11024 11024 11024 11025 11024 11024 11024 11024 11023 11023 11023 11023 11023 11023 11023 11023 11023 11022 11022 11022 11021 11020 11020 11019 11018 11018 11017 11016 11016 11015 11014 11014 11013 11012 11011 11010 11009 11008 11008 11007 11007 11006 11005 11005 11004 11003 11002 11001 11000 10999 10998 10997 10996 10995 10994 10993 10992 10991 10990 10989 10987 10986 10985 10983 10982 10981 10979 10978 10976 10975 10973 10972 10970
11010 11010 11011 11012 11013 11014 11015 11016 11016 11017 11018 11019 11019 11020 11021 11021 11021 11021 11021 11021 11021 11021 11021 11021 11022 11022 11022 11022 11022 11022 11021 11021 11020 11020 11019 11018 11018 11017 11017 11016 11016 11015 11015 11014 11014 11013 11012 11011 11010 11009 11008 11008 11007 11007 11006 11005 11005 11004 11003 11002 11001 11000 11000 10999 10998 10997 10996 10995 10994 10993 10992 10991 10990 10989 10987 10986 10984 10983 10981 10980 10978 10977 10975 10974 10972
11009 11008 11008 11009 11010 11011 11012 11012 11013 11013 11014 11015 11015 11016 11017 11017 11018 11018 11018 11018 11018 11018 11019 11019 11020 11020 11021 11021 11021 11021 11020 11020 11019 11019 11018 11018 11017 11017 11016 11016 11015 11015 11015 11014 11014 11013 11012 11011 11010 11009 11008 11008 11008 11007 11006 11006 11005 11004 11004 11003 11002 11002 11001 11000 10999 10998 10997 10996 10996 10995 10994 10993 10991 10990 10988 10987 10986 10985 10983 10982 10980 10979 10977 10975 10974
11009 11008 11008 11008 11009 11009 11009 11010 11010 11011 11011 11012 11012 11012 11013 11014 11014 11015 11014 11014 11015 11015 11016 11017 11018 11019 11019 11019 11020 11020 11019 11019 11018 11018 11017 11017 11016 11016 11016 11015 11015 11014 11014 11014 11014 11013 11012 11011 11010 11009 11008 11008 11007 11007 11006 11006 11005 11005 11004 11004 11003 11002 11002 11001 11000 10999 10998 10998 10997 10996 10995 10993 10992 10991 10989 10988 10986 10985 10984 10983 10982 10980 10979 10977 10975
11007 11006 11006 11007 11007 11007 11008 11008 11008 11008 11009 11010 11010 11010 11011 11012 11012 11012 11011 11011 11012 11013 11014 11015 11016 11017 11018 11018 11019 11019 11018 11018 11018 11017 11016 11016 11015 11015 11015 11014 11014 11014 11013 11013 11013 11013 11012 11011 11010 11009 11008 11007 11007 11006 11006 11005 11005 11005 11004 11004 11003 11003 11002 11001 11001 11000 10999 10998 10997 10996 10995 10994 10993 10992 10990 10989 10987 10985 10984 10983 10982 10981 10979 10978 10976
11003 11002 11003 11004 11004 11004 11005 11006 11005 11005 11006 11007 11008 11008 11009 11010 11011 11010 11010 11011 11012 11012 11012 11013 11014 11015 11016 11017 11018 11018 11018 11018 11017 11016 11015 11015 11014 11014 11014 11014 11013 11013 11012 11012 11012 11012 11011 11011 11010 11009 11008 11007 11007 11006 11005 11005 11004 11004 11004 11003 11003 11002 11002 11001 11001 11000 10999 10998 10997 10997 10996 10994 10993 10992 10991 10989 10988 10986 10985 10983 10982 10981 10979 10978 10976
10998 10998 10999 11000 11000 11001 11002 11002 11002 11002 11003 11004 11005 11005 11006 11007 11008 11008 11008 11010 11011 11012 11012 11013 11013 11014 11014 11015 11016 11016 11016 11017 11016 11015 11015 11014 11013 11013 11013 11013 11012 11012 11012 11011 11011 11011 11010 11010 11009 11008 11007 11007 11006 11006 11005 11005 11004 11003 11003 11002 11002 11001 11000 11000 11000 10999 10998 10998 10997 10996 10995 10994 10993 10992 10991 10990 10988 10987 10985 10984 10982 10981 10979 10978 10976
10994 10994 10995 10996 10997 10997 10998 10998 10999 10999 11000 11001 11002 11002 11003 11004 11005 11005 11006 11007 11008 11010 11012 11013 11013 11013 11013 11014 11014 11015 11015 11015 11015 11014 11014 11013 11012 11012 11012 11012 11012 11011 11011 11010 11010 11009 11009 11008 11008 11007 11006 11006 11005 11005 11004 11004 11003 11003 11002 11001 11001 11000 10999 10998 10998 10997 10997 10996 10995 10994 10994 10993 10992 10991 10990 10989 10988 10987 10985 10984 10982 10980 10979 10977 10976